Pratica di Mare, Italy

6:25 AM CEST on May 27, 2018 (GMT +0200)
Pratica Di Mare Mil

Weather History for LIRE - September, 2012

Change the Weather History Date:

Monday, September 17, 2012

  Actual Average Record
Temperature  
Mean Temperature 66 °F -  
Max Temperature 74 °F 74 °F 92 °F (2015)
Min Temperature 58 °F 57 °F 53 °F (2008)
Cooling Degree Days 1    
Growing Degree Days 16 (Base 50)    
Moisture  
Dew Point 55 °F    
Average Humidity 66    
Maximum Humidity 94    
Minimum Humidity 37    
Precipitation  
Precipitation 0.00 in 0.13 in - ()
Sea Level Pressure  
Sea Level Pressure 29.95 in    
Wind  
Wind Speed 6 mph ()    
Max Wind Speed 13 mph    
Max Gust Speed -    
Visibility 9.4 miles    
Events      
Averages and records for this station are not official NWS values.
T = Trace of Precipitation, MM = Missing Value Source: Averaged Metar Reports

Daily Weather History Graph

Daily Weather History Graph

Search for Another Location

Airport or City:

Astronomy

Sep. 17, 2012 Rise Set
Actual Time 6:52 AM CEST 7:15 PM CEST
Civil Twilight 6:24 AM CEST 7:43 PM CEST
Nautical Twilight 5:52 AM CEST 8:16 PM CEST
Astronomical Twilight 5:18 AM CEST 8:49 PM CEST
Moon 8:24 AM CEST (9/17) 7:44 PM CEST (9/17)
Length of Visible Light 13h 18m
Length of Day
12h 23m
New Moon, 2% of the Moon is Illuminated
Sep 17
New Moon
Sep 22
First Quarter
Sep 30
Full
Oct 8
Last Quarter
Oct 15
New

Hourly Weather History & Observations

Time (CEST) Temp. Dew Point Humidity Pressure Visibility Wind Dir Wind Speed Gust Speed Precip Events Conditions
12:55 AM 62.6 °F 60.8 °F 94% 29.92 in - North 4.6 mph - N/A   Clear
1:55 AM 64.4 °F 55.4 °F 73% 29.92 in - NNE 6.9 mph - N/A   Clear
2:00 AM 65 °F 56 °F 65% 29.94 in 9 mi NNE 6.9 mph - -  
2:55 AM 60.8 °F 55.4 °F 82% 29.92 in - NNE 6.9 mph - N/A   Clear
3:55 AM 62.6 °F 53.6 °F 72% 29.92 in - NNE 8.1 mph - N/A   Clear
5:00 AM 60 °F 52 °F 67% 29.93 in 9 mi NNE 6.9 mph - -  
5:55 AM 59.0 °F 51.8 °F 77% 29.92 in - North 8.1 mph - N/A   Clear
6:55 AM 59.0 °F 51.8 °F 77% 29.92 in - NNE 9.2 mph - N/A   Clear
7:55 AM 59.0 °F 51.8 °F 77% 29.92 in - NNE 6.9 mph - N/A   Clear
8:00 AM 60 °F 51 °F 64% 29.94 in 12 mi NNE 6.9 mph - -  
8:55 AM 64.4 °F 53.6 °F 68% 29.92 in - North 5.8 mph - N/A   Clear
9:55 AM 68.0 °F 51.8 °F 56% 29.95 in - NNE 4.6 mph - N/A   Clear
10:55 AM 71.6 °F 50.0 °F 46% 29.95 in - NW 4.6 mph - N/A   Clear
11:00 AM 71 °F 51 °F 37% 29.97 in 12 mi NW 4.6 mph - -   Clear
11:55 AM 73.4 °F 50.0 °F 44% 29.95 in - West 10.4 mph - N/A   Clear
12:55 PM 71.6 °F 53.6 °F 53% 29.95 in - WSW 12.7 mph - N/A   Clear
1:55 PM 71.6 °F 55.4 °F 57% 29.95 in - West 12.7 mph - N/A   Clear
2:00 PM 72 °F 55 °F 44% 29.97 in 12 mi West 12.7 mph - -   Clear
2:55 PM 73.4 °F 53.6 °F 50% 29.95 in - West 6.9 mph - N/A   Clear
3:55 PM 73.4 °F 55.4 °F 53% 29.95 in 6.2 mi West 11.5 mph - N/A   Partly Cloudy
4:55 PM 73.4 °F 53.6 °F 50% 29.95 in 6.2 mi West 12.7 mph - N/A   Partly Cloudy
5:55 PM 73.4 °F 55.4 °F 53% 29.95 in - West 10.4 mph - N/A   Clear
6:55 PM 69.8 °F 53.6 °F 56% 29.95 in - WNW 5.8 mph - N/A   Clear
7:55 PM 68.0 °F 59.0 °F 73% 29.95 in - North 2.3 mph - N/A   Clear
8:00 PM 68 °F 58 °F 63% 29.96 in 9 mi North 2.3 mph - -   Clear
8:55 PM 66.2 °F 59.0 °F 78% 29.95 in - North 2.3 mph - N/A   Clear
9:55 PM 64.4 °F 59.0 °F 83% 29.98 in - ENE 1.2 mph - N/A   Clear
10:55 PM 62.6 °F 59.0 °F 88% 29.98 in - ENE 2.3 mph - N/A   Clear
11:00 PM 63 °F 59 °F 81% 29.99 in 9 mi ENE 2.3 mph - -   Clear
11:55 PM 62.6 °F 59.0 °F 88% 29.98 in - Calm Calm - N/A   Clear